Weather History for KOLY - May, 2013

Change the Weather History Date:

Saturday, May 25, 2013

  Actual Average (KEVV) Record (KEVV)
Temperature  
Mean Temperature 58 °F 68 °F  
Max Temperature 71 °F 80 °F 94 °F (1911)
Min Temperature 46 °F 57 °F 35 °F (1925)
Degree Days  
Heating Degree Days 6 2  
Month to date heating degree days 80  
Since 1 July heating degree days 4535  
Cooling Degree Days 0 5  
Month to date cooling degree days 74  
Year to date cooling degree days 101  
Growing Degree Days 8 (Base 50)    
Moisture  
Dew Point 47 °F    
Average Humidity 66    
Maximum Humidity 100    
Minimum Humidity 35    
Precipitation  
Precipitation 0.00 in 0.16 in 2.23 in (2009)
Month to date precipitation 4.32  
Year to date precipitation 19.20  
Snow  
Snow 0.00 in 0.00 in 0.00 in (2002)
Month to date snowfall 0.0  
Since 1 July snowfall 11.8  
Snow Depth -    
Sea Level Pressure  
Sea Level Pressure 30.28 in    
Wind  
Wind Speed 3 mph (ENE)    
Max Wind Speed 14 mph    
Max Gust Speed 18 mph    
Visibility 10 miles    
Events Rain    
T = Trace of Precipitation, MM = Missing Value Source: NWS Daily Summary

Daily Weather History Graph

Daily Weather History Graph

Search for Another Location

Airport or City:

Trip Planner

Search our weather history database for the weather conditions in past years. The results will help you decide how hot, cold, wet, or windy it might be!

Date:

Astronomy

May. 25, 2013 Rise Set
Actual Time 5:33 AM CDT 8:06 PM CDT
Civil Twilight 5:02 AM CDT 8:37 PM CDT
Nautical Twilight 4:24 AM CDT 9:15 PM CDT
Astronomical Twilight 3:41 AM CDT 9:58 PM CDT
Moon 8:54 PM CDT (5/25) 5:59 AM CDT (5/25)
Length of Visible Light 15h 35m
Length of Day
14h 33m
Full, 100% of the Moon is Illuminated
May 25
Full
May 31
Last Quarter
Jun 8
New
Jun 16
First Quarter
Jun 23
Full

Hourly Weather History & Observations

Time (CDT) Temp. Dew Point Humidity Pressure Visibility Wind Dir Wind Speed Gust Speed Precip Events Conditions
12:15 AM 50.0 °F 48.2 °F 94% 30.32 in 10.0 mi Calm Calm - N/A   Clear
12:35 AM 50.0 °F 46.4 °F 87% 30.31 in 10.0 mi Calm Calm - N/A   Clear
12:55 AM 48.2 °F 46.4 °F 93% 30.31 in 10.0 mi Calm Calm - N/A   Clear
1:15 AM 48.2 °F 46.4 °F 93% 30.31 in 10.0 mi Calm Calm - N/A   Clear
1:35 AM 48.2 °F 46.4 °F 93% 30.31 in 10.0 mi Calm Calm - N/A   Clear
1:55 AM 48.2 °F 46.4 °F 93% 30.30 in 10.0 mi Calm Calm - N/A   Clear
2:15 AM 48.2 °F 46.4 °F 93% 30.30 in 10.0 mi Calm Calm - N/A   Clear
2:35 AM 48.2 °F 46.4 °F 93% 30.28 in 10.0 mi Calm Calm - N/A   Clear
2:55 AM 46.4 °F 46.4 °F 100% 30.28 in 10.0 mi Calm Calm - N/A   Clear
3:15 AM 46.4 °F 46.4 °F 100% 30.26 in 10.0 mi Calm Calm - N/A   Clear
3:35 AM 46.4 °F 46.4 °F 100% 30.26 in 10.0 mi Calm Calm - N/A   Clear
3:55 AM 48.2 °F 48.2 °F 100% 30.27 in 10.0 mi Calm Calm - N/A   Clear
4:15 AM 48.2 °F 46.4 °F 93% 30.28 in 10.0 mi Calm Calm - N/A   Clear
4:35 AM 46.4 °F 46.4 °F 100% 30.29 in 10.0 mi Calm Calm - N/A   Clear
4:55 AM 46.4 °F 46.4 °F 100% 30.28 in 10.0 mi Calm Calm - N/A   Clear
5:15 AM 48.2 °F 48.2 °F 100% 30.29 in 10.0 mi Calm Calm - N/A   Clear
5:35 AM 48.2 °F 46.4 °F 93% 30.30 in 10.0 mi Calm Calm - N/A   Clear
5:55 AM 48.2 °F 48.2 °F 100% 30.31 in 10.0 mi ENE 3.5 mph - N/A   Clear
6:15 AM 50.0 °F 48.2 °F 94% 30.31 in 10.0 mi Calm Calm - N/A   Clear
6:35 AM 50.0 °F 48.2 °F 94% 30.33 in 10.0 mi Calm Calm - N/A   Clear
6:55 AM 53.6 °F 48.2 °F 82% 30.34 in 10.0 mi Calm Calm - N/A   Clear
7:15 AM 55.4 °F 50.0 °F 82% 30.35 in 10.0 mi Calm Calm - N/A   Clear
7:35 AM 57.2 °F 50.0 °F 77% 30.35 in 10.0 mi Calm Calm - N/A   Clear
7:55 AM 60.8 °F 50.0 °F 68% 30.36 in 10.0 mi Calm Calm - N/A   Clear
8:15 AM 60.8 °F 48.2 °F 63% 30.37 in 10.0 mi NE 3.5 mph - N/A   Clear
8:35 AM 60.8 °F 48.2 °F 63% 30.38 in 10.0 mi Calm Calm - N/A   Clear
8:55 AM 64.4 °F 48.2 °F 56% 30.38 in 10.0 mi Calm Calm - N/A   Clear
9:15 AM 66.2 °F 48.2 °F 52% 30.37 in 10.0 mi Calm Calm - N/A   Clear
9:35 AM 66.2 °F 48.2 °F 52% 30.35 in 10.0 mi Calm Calm - N/A   Clear
9:55 AM 69.8 °F 48.2 °F 46% 30.34 in 10.0 mi SE 3.5 mph - N/A   Clear
10:15 AM 69.8 °F 46.4 °F 43% 30.33 in 10.0 mi ENE 3.5 mph - N/A   Clear
10:35 AM 69.8 °F 44.6 °F 40% 30.33 in 10.0 mi ESE 6.9 mph - N/A   Clear
10:55 AM 69.8 °F 44.6 °F 40% 30.32 in 10.0 mi ESE 6.9 mph - N/A   Clear
11:15 AM 69.8 °F 44.6 °F 40% 30.33 in 10.0 mi ESE 4.6 mph - N/A   Clear
11:35 AM 71.6 °F 44.6 °F 38% 30.33 in 10.0 mi East 5.8 mph - N/A   Clear
11:55 AM 71.6 °F 44.6 °F 38% 30.33 in 10.0 mi East 8.1 mph - N/A   Clear
12:15 PM 69.8 °F 44.6 °F 40% 30.33 in 10.0 mi ESE 3.5 mph - N/A   Scattered Clouds
12:35 PM 69.8 °F 44.6 °F 40% 30.33 in 10.0 mi Calm Calm - N/A   Scattered Clouds
12:55 PM 69.8 °F 44.6 °F 40% 30.33 in 10.0 mi ENE 3.5 mph - N/A Rain Light Rain
1:15 PM 71.6 °F 42.8 °F 35% 30.33 in 10.0 mi Calm Calm - N/A   Scattered Clouds
1:35 PM 71.6 °F 44.6 °F 38% 30.32 in 10.0 mi East 8.1 mph - N/A   Clear
1:55 PM 69.8 °F 46.4 °F 43% 30.30 in 10.0 mi ENE 6.9 mph - N/A   Clear
2:15 PM 69.8 °F 46.4 °F 43% 30.30 in 10.0 mi NE 6.9 mph - N/A   Clear
2:35 PM 69.8 °F 46.4 °F 43% 30.30 in 10.0 mi ENE 8.1 mph - N/A   Clear
2:55 PM 69.8 °F 46.4 °F 43% 30.30 in 10.0 mi NE 5.8 mph - N/A   Clear
3:15 PM 66.2 °F 46.4 °F 49% 30.29 in 7.0 mi ENE 6.9 mph - N/A   Clear
3:35 PM 66.2 °F 48.2 °F 52% 30.28 in 10.0 mi NE 8.1 mph - N/A Rain Light Rain
3:55 PM - - N/A% 30.24 in 10.0 mi East 10.4 mph - N/A Rain Light Rain
4:15 PM 66.2 °F 50.0 °F 56% 30.22 in 10.0 mi Calm Calm - N/A   Clear
4:35 PM 66.2 °F 50.0 °F 56% 30.21 in 10.0 mi East 11.5 mph - N/A   Clear
4:55 PM 66.2 °F 48.2 °F 52% 30.20 in 10.0 mi ESE 9.2 mph 16.1 mph N/A   Clear
5:15 PM 66.2 °F 48.2 °F 52% 30.20 in 10.0 mi ESE 9.2 mph - N/A   Scattered Clouds
5:35 PM 66.2 °F 48.2 °F 52% 30.19 in 10.0 mi ESE 8.1 mph 11.5 mph N/A   Clear
5:55 PM 66.2 °F 48.2 °F 52% 30.20 in 10.0 mi ESE 5.8 mph - N/A   Scattered Clouds
6:15 PM 66.2 °F 48.2 °F 52% 30.19 in 10.0 mi East 8.1 mph - N/A   Scattered Clouds
6:35 PM 66.2 °F 50.0 °F 56% 30.20 in 10.0 mi NE 6.9 mph - N/A   Scattered Clouds
6:55 PM 64.4 °F 48.2 °F 56% 30.19 in 10.0 mi East 8.1 mph - N/A   Mostly Cloudy
7:15 PM 64.4 °F 48.2 °F 56% 30.21 in 10.0 mi NE 9.2 mph - N/A   Overcast
7:35 PM 62.6 °F 48.2 °F 59% 30.20 in 10.0 mi NE 5.8 mph - N/A   Overcast
7:55 PM 62.6 °F 48.2 °F 59% 30.20 in 10.0 mi ENE 6.9 mph - N/A Rain Light Rain
8:15 PM 60.8 °F 48.2 °F 63% 30.22 in 10.0 mi NE 6.9 mph - N/A   Overcast
8:35 PM 60.8 °F 48.2 °F 63% 30.21 in 10.0 mi ENE 9.2 mph - N/A   Overcast
8:55 PM 60.8 °F 46.4 °F 59% 30.22 in 10.0 mi ENE 9.2 mph - N/A   Overcast
9:15 PM 60.8 °F 46.4 °F 59% 30.22 in 10.0 mi ENE 11.5 mph - N/A   Overcast
9:35 PM 59.0 °F 46.4 °F 63% 30.23 in 10.0 mi ENE 9.2 mph - N/A   Overcast
9:55 PM 59.0 °F 46.4 °F 63% 30.24 in 10.0 mi ENE 10.4 mph - N/A   Overcast
10:15 PM 59.0 °F 46.4 °F 63% 30.23 in 10.0 mi ENE 12.7 mph 18.4 mph N/A   Overcast
10:35 PM 57.2 °F 48.2 °F 72% 30.24 in 10.0 mi East 9.2 mph 12.7 mph N/A Rain Light Rain
10:55 PM 57.2 °F 46.4 °F 67% 30.24 in 10.0 mi ENE 11.5 mph - N/A   Mostly Cloudy
11:15 PM 57.2 °F 48.2 °F 72% 30.24 in 10.0 mi ENE 13.8 mph 18.4 mph N/A   Mostly Cloudy
11:35 PM 57.2 °F 48.2 °F 72% 30.24 in 10.0 mi ENE 10.4 mph - N/A   Overcast
11:55 PM 57.2 °F 50.0 °F 77% 30.24 in 10.0 mi ENE 10.4 mph - N/A   Overcast